| time (UTC) | temp C | wind direction | speed KPH | gust KPH | rain 1hr cm | rain 24hr cm | rain mn cm | humidity % | barometer mb |
| 20260508124533 | 10 | 260 | 14.5 | 0.0 | 0.00 | 0.00 | 0.13 | 79 | 1010.8 |
| 20260508123028 | 10 | 246 | 16.1 | 0.0 | 0.00 | 0.00 | 0.13 | 78 | 1010.9 |
| 20260508121534 | 10 | 227 | 16.1 | 0.0 | 0.00 | 0.00 | 0.13 | 78 | 1010.7 |
| 20260508120024 | 10 | 217 | 12.9 | 0.0 | 0.00 | 0.00 | 0.13 | 79 | 1010.6 |
| 20260508114522 | 9 | 236 | 8.0 | 0.0 | 0.00 | 0.00 | 0.13 | 84 | 1010.6 |
| 20260508113022 | 7 | 294 | 0.0 | 0.0 | 0.00 | 0.00 | 0.13 | 93 | 1010.7 |
| 20260508111521 | 7 | 298 | 0.0 | 0.0 | 0.00 | 0.00 | 0.13 | 94 | 1010.5 |
| 20260508110042 | 6 | 269 | 0.0 | 0.0 | 0.00 | 0.00 | 0.13 | 94 | 1010.4 |
| 20260508104520 | 7 | 269 | 0.0 | 0.0 | 0.00 | 0.00 | 0.13 | 93 | 1010.4 |
| 20260508103019 | 7 | 269 | 3.2 | 0.0 | 0.00 | 0.00 | 0.13 | 91 | 1010.4 |
| 20260508101521 | 7 | 282 | 6.4 | 0.0 | 0.00 | 0.00 | 0.13 | 90 | 1010.9 |
| 20260508100021 | 7 | 286 | 6.4 | 0.0 | 0.00 | 0.00 | 0.10 | 93 | 1011.0 |
| 20260508094517 | 6 | 242 | 0.0 | 0.0 | 0.00 | 0.00 | 0.10 | 92 | 1010.3 |
| 20260508093015 | 7 | 242 | 0.0 | 0.0 | 0.00 | 0.00 | 0.10 | 89 | 1010.3 |
| 20260508091513 | 8 | 242 | 3.2 | 0.0 | 0.00 | 0.00 | 0.10 | 86 | 1010.4 |
| 20260508090017 | 8 | 245 | 8.0 | 0.0 | 0.00 | 0.00 | 0.10 | 85 | 1010.4 |
| 20260508084509 | 8 | 270 | 14.5 | 0.0 | 0.00 | 0.00 | 0.10 | 86 | 1010.4 |
| 20260508083008 | 8 | 286 | 22.5 | 0.0 | 0.00 | 0.00 | 0.08 | 84 | 1011.0 |
| 20260508081508 | 8 | 266 | 14.5 | 0.0 | 0.00 | 0.00 | 0.03 | 84 | 1010.5 |
| 20260508080010 | 8 | 214 | 16.1 | 0.0 | 0.00 | 0.00 | 0.03 | 84 | 1010.6 |
| 20260508074508 | 7 | 221 | 11.3 | 0.0 | 0.00 | 0.00 | 0.03 | 85 | 1010.6 |
| 20260508073106 | 7 | 207 | 8.0 | 0.0 | 0.00 | 0.00 | 0.03 | 85 | 1010.6 |
| 20260508071604 | 8 | 215 | 8.0 | 0.0 | 0.00 | 0.00 | 0.03 | 84 | 1010.8 |
| 20260508070055 | 8 | 215 | 11.3 | 0.0 | 0.00 | 0.00 | 0.03 | 84 | 1011.0 |
| 20260508064554 | 8 | 214 | 11.3 | 0.0 | 0.00 | 0.00 | 0.03 | 83 | 1011.0 |
| 20260508063053 | 8 | 259 | 16.1 | 0.0 | 0.00 | 0.00 | 0.03 | 83 | 1011.3 |
| 20260508061553 | 9 | 246 | 17.7 | 0.0 | 0.00 | 0.00 | 0.03 | 79 | 1011.5 |
| 20260508060050 | 9 | 236 | 14.5 | 0.0 | 0.00 | 0.00 | 0.00 | 76 | 1011.4 |
| 20260508054548 | 8 | 213 | 8.0 | 0.0 | 0.00 | 0.00 | 0.00 | 78 | 1011.4 |
| 20260508053112 | 8 | 211 | 6.4 | 0.0 | 0.00 | 0.00 | 0.00 | 80 | 1011.3 |
| 20260508051546 | 8 | 193 | 6.4 | 0.0 | 0.00 | 0.00 | 0.00 | 80 | 1011.4 |
| 20260508050045 | 8 | 227 | 4.8 | 0.0 | 0.00 | 0.00 | 0.00 | 79 | 1011.5 |
| 20260508044541 | 8 | 235 | 3.2 | 0.0 | 0.00 | 0.00 | 0.00 | 81 | 1011.6 |
| 20260508043039 | 8 | 237 | 1.6 | 0.0 | 0.00 | 0.00 | 0.00 | 82 | 1011.4 |
| 20260508041604 | 8 | 238 | 3.2 | 0.0 | 0.00 | 0.00 | 0.00 | 80 | 1011.4 |
| 20260508040042 | 8 | 245 | 3.2 | 0.0 | 0.00 | 0.00 | 0.00 | 76 | 1011.4 |
| 20260508034536 | 9 | 246 | 6.4 | 0.0 | 0.00 | 0.00 | 0.00 | 74 | 1011.7 |
| 20260508033034 | 9 | 281 | 4.8 | 0.0 | 0.00 | 0.00 | 0.00 | 74 | 1011.9 |
| 20260508031537 | 9 | 295 | 6.4 | 0.0 | 0.00 | 0.00 | 0.00 | 73 | 1011.8 |
| 20260508030036 | 9 | 294 | 8.0 | 0.0 | 0.00 | 0.00 | 0.00 | 71 | 1012.0 |
| 20260508024534 | 10 | 286 | 9.7 | 0.0 | 0.00 | 0.00 | 0.00 | 69 | 1012.0 |
| 20260508023034 | 10 | 285 | 14.5 | 0.0 | 0.00 | 0.00 | 0.00 | 66 | 1012.0 |
| 20260508021534 | 10 | 269 | 11.3 | 0.0 | 0.00 | 0.00 | 0.00 | 64 | 1011.8 |
| 20260508020040 | 10 | 266 | 12.9 | 0.0 | 0.00 | 0.00 | 0.00 | 66 | 1011.7 |
| 20260508014530 | 8 | 251 | 3.2 | 0.0 | 0.00 | 0.00 | 0.00 | 70 | 1011.4 |
| 20260508013030 | 8 | 292 | 0.0 | 0.0 | 0.00 | 0.00 | 0.00 | 71 | 1011.1 |
| 20260508011529 | 8 | 292 | 0.0 | 0.0 | 0.00 | 0.00 | 0.00 | 72 | 1011.1 |
| 20260508010029 | 9 | 292 | 0.0 | 0.0 | 0.00 | 0.00 | 0.00 | 68 | 1010.9 |
| 20260508004532 | 10 | 292 | 0.0 | 0.0 | 0.00 | 0.00 | 0.00 | 63 | 1010.9 |
| 20260508003034 | 10 | 292 | 4.8 | 0.0 | 0.00 | 0.00 | 0.00 | 57 | 1010.8 |
| 20260508001528 | 11 | 292 | 8.0 | 0.0 | 0.00 | 0.00 | 0.00 | 57 | 1010.6 |
| 20260508000031 | 11 | 303 | 9.7 | 0.0 | 0.00 | 0.00 | 0.00 | 53 | 1010.5 |
| 20260507234527 | 12 | 286 | 12.9 | 0.0 | 0.00 | 0.00 | 0.00 | 54 | 1010.4 |
| 20260507233049 | 12 | 303 | 12.9 | 0.0 | 0.00 | 0.00 | 0.00 | 52 | 1010.5 |
| 20260507231531 | 12 | 294 | 11.3 | 0.0 | 0.00 | 0.00 | 0.00 | 53 | 1010.4 |
| 20260507230026 | 12 | 290 | 11.3 | 0.0 | 0.00 | 0.00 | 0.00 | 54 | 1010.5 |
| 20260507224528 | 12 | 290 | 14.5 | 0.0 | 0.00 | 0.00 | 0.00 | 52 | 1010.7 |
| 20260507223028 | 12 | 290 | 14.5 | 0.0 | 0.00 | 0.00 | 0.00 | 52 | 1010.6 |
| 20260507221532 | 12 | 288 | 17.7 | 0.0 | 0.00 | 0.00 | 0.00 | 51 | 1010.5 |
| 20260507220025 | 12 | 287 | 19.3 | 0.0 | 0.00 | 0.00 | 0.00 | 51 | 1010.5 |
| 20260507214523 | 13 | 293 | 20.9 | 0.0 | 0.00 | 0.00 | 0.00 | 52 | 1010.3 |
| 20260507213025 | 12 | 278 | 17.7 | 0.0 | 0.00 | 0.00 | 0.00 | 52 | 1010.3 |
| 20260507211524 | 13 | 275 | 16.1 | 0.0 | 0.00 | 0.00 | 0.00 | 53 | 1010.3 |
| 20260507210021 | 12 | 276 | 20.9 | 0.0 | 0.00 | 0.00 | 0.00 | 52 | 1010.2 |
| 20260507204522 | 12 | 278 | 20.9 | 0.0 | 0.00 | 0.00 | 0.00 | 56 | 1010.3 |
| 20260507203044 | 12 | 265 | 19.3 | 0.0 | 0.00 | 0.00 | 0.00 | 54 | 1010.0 |
| 20260507201610 | 13 | 299 | 22.5 | 0.0 | 0.00 | 0.00 | 0.00 | 59 | 1010.1 |
| 20260507200132 | 11 | 292 | 20.9 | 0.0 | 0.00 | 0.00 | 0.00 | 58 | 1010.3 |
| 20260507194531 | 12 | 275 | 20.9 | 0.0 | 0.00 | 0.00 | 0.00 | 62 | 1010.2 |
| 20260507193049 | 11 | 286 | 20.9 | 0.0 | 0.00 | 0.00 | 0.00 | 60 | 1010.5 |
| 20260507191609 | 12 | 291 | 19.3 | 0.0 | 0.00 | 0.00 | 0.00 | 60 | 1010.4 |
| 20260507190130 | 12 | 296 | 19.3 | 0.0 | 0.00 | 0.00 | 0.00 | 61 | 1010.4 |
| 20260507184532 | 12 | 265 | 16.1 | 0.0 | 0.00 | 0.00 | 0.00 | 61 | 1010.5 |
| 20260507183046 | 12 | 219 | 14.5 | 0.0 | 0.00 | 0.00 | 0.00 | 61 | 1010.4 |
| 20260507181546 | 11 | 278 | 16.1 | 0.0 | 0.00 | 0.00 | 0.00 | 59 | 1010.6 |
| 20260507180040 | 12 | 285 | 20.9 | 0.0 | 0.00 | 0.00 | 0.00 | 60 | 1010.8 |
| 20260507174547 | 12 | 269 | 22.5 | 0.0 | 0.00 | 0.00 | 0.00 | 62 | 1010.9 |
| 20260507173053 | 12 | 280 | 17.7 | 0.0 | 0.00 | 0.00 | 0.00 | 62 | 1010.8 |
| 20260507171544 | 11 | 250 | 19.3 | 0.0 | 0.00 | 0.00 | 0.00 | 60 | 1010.9 |
| 20260507170035 | 12 | 279 | 19.3 | 0.0 | 0.00 | 0.00 | 0.00 | 59 | 1011.0 |
| 20260507164541 | 11 | 284 | 12.9 | 0.0 | 0.00 | 0.00 | 0.00 | 63 | 1010.9 |
| 20260507163033 | 11 | 244 | 16.1 | 0.0 | 0.00 | 0.00 | 0.00 | 60 | 1010.9 |
| 20260507161536 | 11 | 271 | 16.1 | 0.0 | 0.00 | 0.00 | 0.00 | 59 | 1011.0 |
| 20260507160036 | 11 | 256 | 17.7 | 0.0 | 0.00 | 0.00 | 0.00 | 63 | 1011.1 |
| 20260507154529 | 11 | 284 | 16.1 | 0.0 | 0.00 | 0.00 | 0.00 | 65 | 1011.0 |
| 20260507153029 | 11 | 293 | 14.5 | 0.0 | 0.00 | 0.00 | 0.00 | 66 | 1011.0 |
| 20260507151527 | 11 | 268 | 14.5 | 0.0 | 0.00 | 0.00 | 0.00 | 64 | 1011.1 |
| 20260507150025 | 11 | 245 | 14.5 | 0.0 | 0.00 | 0.00 | 0.00 | 61 | 1011.1 |
| 20260507144527 | 11 | 270 | 11.3 | 0.0 | 0.00 | 0.00 | 0.00 | 74 | 1011.1 |
| 20260507143022 | 10 | 259 | 11.3 | 0.0 | 0.00 | 0.00 | 0.00 | 74 | 1011.1 |
| 20260507141521 | 10 | 228 | 9.7 | 0.0 | 0.00 | 0.00 | 0.00 | 75 | 1011.1 |
| 20260507140016 | 9 | 227 | 9.7 | 0.0 | 0.00 | 0.00 | 0.00 | 77 | 1011.2 |
| 20260507134518 | 9 | 277 | 11.3 | 0.0 | 0.00 | 0.00 | 0.00 | 79 | 1011.4 |
| 20260507133013 | 8 | 228 | 9.7 | 0.0 | 0.00 | 0.00 | 0.00 | 80 | 1011.4 |
| 20260507131511 | 8 | 260 | 9.7 | 0.0 | 0.00 | 0.00 | 0.00 | 82 | 1011.5 |
| 20260507130006 | 7 | 263 | 9.7 | 0.0 | 0.00 | 0.00 | 0.00 | 83 | 1011.5 |